Location: Township of South Roscoe
(37.9570°N, 100.1180°W)
Time: 04:39:24
(UTC+00:00)

X-37B - Visible Passes

Search period start: 28 January 2022 00:00
Search period end: 07 February 2022 00:00
Orbit: 334 x 337 km, 45.0° (Epoch: 11 January)

Date Brightness Start Highest point End Pass type
(mag) Time Alt. Az. Time Alt. Az. Time Alt. Az.
28 Jan 0.4 01:12:20 10° WSW 01:15:09 65° NNW 01:15:56 40° NE visible
29 Jan 1.7 01:33:08 10° W 01:35:38 30° NNW 01:35:38 30° NNW visible
30 Jan 2.9 01:54:09 10° WNW 01:55:16 17° NW 01:55:16 17° NW visible
31 Jan 1.6 00:38:33 10° W 00:41:08 30° NNW 00:43:39 10° NE visible
01 Feb 2.2 00:59:34 10° WNW 01:01:49 21° N 01:03:15 15° NNE visible
02 Feb 2.2 01:20:27 10° NW 01:22:35 19° N 01:22:51 18° N visible
03 Feb 2.5 01:41:01 10° NW 01:42:28 19° NNW 01:42:28 19° NNW visible
04 Feb 3.0 02:01:21 10° NW 02:02:08 16° NW 02:02:08 16° NW visible
05 Feb 2.0 00:46:26 10° NW 00:48:45 22° N 00:50:37 12° ENE visible
05 Feb 3.8 02:21:41 10° WNW 02:21:52 11° WNW 02:21:52 11° WNW visible
06 Feb 1.2 01:06:47 10° NW 01:09:25 33° NNE 01:10:26 25° ENE visible
